Flag for U.S.A. Weather past 2 weeks in Juneau, Alaska, U.S.A.

Now
33 °F

Mostly cloudy.


Feels Like: 33 °F
Forecast: 31 / 37 °F
Wind: No wind

Location: Juneau International Airport

Current Time: Dec 19, 2014 at 4:54:48 AM

Latest Report: Dec 19, 2014 at 3:53 AM


Visibility: 10 mi

Pressure: 29.36 "Hg

Humidity: 92%

Dew point: 31 °F

Location of JuneauLocation

Historic Weather in Juneau — Graph

°F

Juneau temperature yesterday

Maximum temperature yesterday: 38 °F (at 11:53 AM)
Minimum temperature yesterday: 30 °F (at 12:53 AM)
Average temperature yesterday: 34 °F

Past Weeks' High & Low Weather Summary

 TemperatureHumidityPressure
High46 °F (Dec 14, 9:53 PM)100% (Dec 4, 4:00 AM)30.03 "Hg (Dec 4, 4:00 AM)
Low17 °F (Dec 5, 8:53 AM)56% (Dec 15, 7:53 AM)28.82 "Hg (Dec 9, 1:53 PM)
Average35 °F92%29.54 "Hg
* Reported Dec 4 4:00 AM — Dec 19 3:53 AM, Juneau, Weather by CustomWeather, © 2014

Note: Actual official high and low records may vary slightly from our data, if they occured in-between our weather recording intervals... More about our weather records

Advertising

Juneau weather history for previous 24 hours

 ConditionsComfort  
Time TempWeatherWind HumidityBarometerVisibility
3:53 AM
Dec 19
33 °FMostly cloudy.No wind92%29.36 "Hg10 mi
2:53 AM34 °FLight snow. Mostly cloudy.No wind88%29.36 "Hg10 mi
1:53 AM33 °FMostly cloudy.No wind92%29.35 "Hg10 mi
12:53 AM33 °FMostly cloudy.No wind88%29.35 "Hg10 mi
11:53 PM
Dec 18
34 °FMostly cloudy.No wind88%29.35 "Hg10 mi
10:53 PM34 °FOvercast.3 mph88%29.36 "Hg10 mi
9:53 PM36 °FMostly cloudy.No wind75%29.36 "Hg10 mi
8:53 PM38 °FMostly cloudy.12 mph60%29.36 "Hg10 mi
7:53 PM35 °FOvercast.3 mph82%29.36 "Hg10 mi
6:53 PM38 °FMostly cloudy.6 mph63%29.37 "Hg10 mi
5:53 PM38 °FOvercast.12 mph60%29.38 "Hg10 mi
4:53 PM38 °FOvercast.9 mph63%29.39 "Hg10 mi
3:53 PM38 °FMostly cloudy.9 mph65%29.39 "Hg10 mi
2:53 PM38 °FMostly cloudy.13 mph65%29.40 "Hg10 mi
1:53 PM38 °FMostly cloudy.14 mph65%29.41 "Hg10 mi
12:53 PM38 °FMostly cloudy.17 mph60%29.44 "Hg10 mi
11:53 AM38 °FMostly cloudy.16 mph58%29.48 "Hg10 mi
10:53 AM37 °FMostly cloudy.17 mph60%29.51 "Hg10 mi
9:53 AM33 °FMostly cloudy.13 mph75%29.52 "Hg10 mi
8:53 AM31 °FMostly cloudy.5 mph89%29.53 "Hg10 mi
7:53 AM32 °FPartly cloudy.3 mph85%29.56 "Hg10 mi
6:53 AM31 °FMostly cloudy.No wind96%29.57 "Hg10 mi
5:53 AM31 °FMostly cloudy.No wind96%29.59 "Hg10 mi
4:53 AM31 °FMostly cloudy.No wind100%29.61 "Hg9 mi
Weather by CustomWeather, © 2014

See weather overviewHow to use our weather pages